Tracking 17265 objects as of 3-September-2015
HD Live streaming from Space Station

Track Soyuz TMA-18M
and Space Station

TITAN 3 R/B(2)

Track TITAN 3 R/B(2) now!
TITAN 3 R/B(2) is classified as:


NORAD ID: 20669
Int'l Code: 1990-056C
Perigee: 301.9 km
Apogee: 33,311.5 km
Inclination: 24.6 °
Period: 585.3 minutes
Semi major axis: 23177 km
RCS: 6.947 m2 (large)
Launch date: June 23, 1990
Source: United States (US)

Note: This is a ROCKET BODY
Your satellite tracking list
Your tracking list is empty





NASA's NSSDC Master Catalog

Two Line Element Set (TLE):
1 20669U 90056C   15245.21418303  .00000256  00000-0  27254-3 0  9998
2 20669  24.5876   0.2506 7120967 272.9479  51.8581  2.46035083211229

Source of the keplerian elements: AFSPC

N2YO: 423